• In Österreich
  • Länderverzeichnis
  • Für 7 Tage
  • Wassertemperatur
  • Satellitenkarten
  • Wetterkarte
  • News
  • Widgets
  • user-avatar
    Anmelden

    Stündliche Wetter Hvorostevo

    Heute, 23 Juli, Montag

    Zeit Temperatur Niederschläge Wind Luftdruck Luftfeuchtigkeit
    00:00 +18°C° 0 mm 2 m/S 738 mmHg 98%
    01:00 +18°C° 0 mm 2 m/S 738 mmHg 98%
    02:00 +18°C° 0 mm 2 m/S 738 mmHg 98%
    03:00 +18°C° 0 mm 2 m/S 738 mmHg 98%
    04:00 +18°C° 0 mm 2 m/S 738 mmHg 98%
    05:00 +18°C° 0 mm 2 m/S 738 mmHg 98%
    06:00 +19°C° 0 mm 2 m/S 738 mmHg 92%
    07:00 +20°C° 0 mm 2 m/S 738 mmHg 87%
    08:00 +22°C° 0 mm 3 m/S 739 mmHg 82%
    09:00 +22°C° 0,1 mm 3 m/S 739 mmHg 80%
    10:00 +24°C° 0,1 mm 3 m/S 739 mmHg 77%
    11:00 +24°C° 0,1 mm 3 m/S 739 mmHg 74%
    12:00 +24°C° 0,2 mm 3 m/S 739 mmHg 72%
    13:00 +25°C° 0,2 mm 3 m/S 739 mmHg 69%
    14:00 +25°C° 0,2 mm 3 m/S 739 mmHg 67%
    15:00 +25°C° 0,1 mm 3 m/S 739 mmHg 68%
    16:00 +25°C° 0,1 mm 3 m/S 739 mmHg 70%
    17:00 +25°C° 0,1 mm 3 m/S 739 mmHg 71%
    18:00 +23°C° 0,1 mm 2 m/S 739 mmHg 78%
    19:00 +21°C° 0,1 mm 2 m/S 739 mmHg 84%
    20:00 +19°C° 0,1 mm 2 m/S 739 mmHg 90%
    21:00 +19°C° 0 mm 2 m/S 739 mmHg 93%
    22:00 +18°C° 0 mm 2 m/S 739 mmHg 95%
    23:00 +17°C° 0 mm 2 m/S 740 mmHg 97%

    Morgen, 24 Juli, Dienstag

    Zeit Temperatur Niederschläge Wind Luftdruck Luftfeuchtigkeit
    00:00 +17°C° 0 mm 2 m/S 740 mmHg 98%
    01:00 +16°C° 0 mm 2 m/S 739 mmHg 98%
    02:00 +16°C° 0 mm 2 m/S 739 mmHg 98%
    03:00 +16°C° 0 mm 2 m/S 740 mmHg 98%
    04:00 +16°C° 0 mm 2 m/S 740 mmHg 97%
    05:00 +16°C° 0 mm 2 m/S 740 mmHg 96%
    06:00 +17°C° 0 mm 2 m/S 740 mmHg 91%
    07:00 +19°C° 0 mm 3 m/S 740 mmHg 86%
    08:00 +20°C° 0 mm 3 m/S 740 mmHg 81%
    09:00 +21°C° 0 mm 3 m/S 740 mmHg 78%
    10:00 +22°C° 0 mm 3 m/S 740 mmHg 74%
    11:00 +24°C° 0 mm 3 m/S 740 mmHg 71%
    12:00 +24°C° 0,1 mm 3 m/S 740 mmHg 71%
    13:00 +24°C° 0,1 mm 3 m/S 740 mmHg 70%
    14:00 +25°C° 0,1 mm 3 m/S 740 mmHg 70%
    15:00 +25°C° 0,2 mm 3 m/S 740 mmHg 72%
    16:00 +24°C° 0,2 mm 3 m/S 740 mmHg 74%
    17:00 +24°C° 0,2 mm 3 m/S 740 mmHg 77%
    18:00 +22°C° 0,1 mm 3 m/S 740 mmHg 81%
    19:00 +21°C° 0,1 mm 2 m/S 740 mmHg 86%
    20:00 +20°C° 0,1 mm 2 m/S 741 mmHg 91%
    21:00 +19°C° 0 mm 2 m/S 741 mmHg 93%
    22:00 +18°C° 0 mm 2 m/S 741 mmHg 96%
    23:00 +18°C° 0 mm 2 m/S 741 mmHg 98%

    übermorgen, 25 Juli, Mittwoch

    Zeit Temperatur Niederschläge Wind Luftdruck Luftfeuchtigkeit
    00:00 +17°C° 0 mm 2 m/S 741 mmHg 98%
    01:00 +17°C° 0 mm 2 m/S 741 mmHg 98%
    02:00 +17°C° 0 mm 2 m/S 741 mmHg 98%
    03:00 +17°C° 0 mm 2 m/S 741 mmHg 98%
    04:00 +18°C° 0 mm 2 m/S 741 mmHg 98%
    05:00 +18°C° 0 mm 2 m/S 741 mmHg 97%
    06:00 +19°C° 0 mm 2 m/S 741 mmHg 95%
    07:00 +19°C° 0 mm 2 m/S 741 mmHg 93%
    08:00 +20°C° 0 mm 3 m/S 741 mmHg 90%
    09:00 +22°C° 0,2 mm 3 m/S 742 mmHg 85%
    10:00 +24°C° 0,2 mm 3 m/S 742 mmHg 81%
    11:00 +26°C° 0,2 mm 3 m/S 742 mmHg 76%
    12:00 +25°C° 0,7 mm 3 m/S 742 mmHg 75%
    13:00 +25°C° 0,7 mm 4 m/S 742 mmHg 74%
    14:00 +25°C° 0,7 mm 4 m/S 742 mmHg 73%
    15:00 +23°C° 0 mm 4 m/S 742 mmHg 71%
    16:00 +22°C° 0 mm 4 m/S 742 mmHg 68%
    17:00 +22°C° 0 mm 4 m/S 742 mmHg 65%
    18:00 +20°C° 0 mm 3 m/S 742 mmHg 70%
    19:00 +19°C° 0 mm 3 m/S 742 mmHg 76%
    20:00 +18°C° 0 mm 2 m/S 742 mmHg 81%
    21:00 +18°C° 0 mm 2 m/S 742 mmHg 84%
    22:00 +18°C° 0 mm 3 m/S 742 mmHg 86%
    23:00 +18°C° 0 mm 3 m/S 742 mmHg 88%

    26 Juli, Donnerstag

    Zeit Temperatur Niederschläge Wind Luftdruck Luftfeuchtigkeit
    00:00 +18°C° 0 mm 3 m/S 742 mmHg 91%
    01:00 +18°C° 0 mm 3 m/S 742 mmHg 93%
    02:00 +17°C° 0 mm 3 m/S 742 mmHg 95%
    03:00 +17°C° 0,1 mm 3 m/S 742 mmHg 94%
    04:00 +17°C° 0,1 mm 3 m/S 742 mmHg 93%
    05:00 +17°C° 0,1 mm 3 m/S 742 mmHg 92%
    06:00 +18°C° 0,4 mm 3 m/S 742 mmHg 92%
    07:00 +18°C° 0,4 mm 3 m/S 742 mmHg 93%
    08:00 +18°C° 0,4 mm 3 m/S 742 mmHg 93%
    09:00 +19°C° 0,2 mm 3 m/S 742 mmHg 92%
    10:00 +20°C° 0,2 mm 3 m/S 742 mmHg 91%
    11:00 +21°C° 0,2 mm 3 m/S 742 mmHg 90%
    12:00 +21°C° 0,4 mm 3 m/S 742 mmHg 90%
    13:00 +21°C° 0,4 mm 3 m/S 742 mmHg 89%
    14:00 +22°C° 0,4 mm 3 m/S 742 mmHg 89%
    15:00 +22°C° 0,3 mm 3 m/S 743 mmHg 88%
    16:00 +22°C° 0,3 mm 3 m/S 743 mmHg 87%
    17:00 +24°C° 0,3 mm 2 m/S 743 mmHg 87%
    18:00 +23°C° 0,8 mm 2 m/S 743 mmHg 89%
    19:00 +21°C° 0,8 mm 2 m/S 743 mmHg 92%
    20:00 +21°C° 0,8 mm 2 m/S 743 mmHg 94%
    21:00 +20°C° 1,1 mm 2 m/S 743 mmHg 95%
    22:00 +20°C° 1,1 mm 2 m/S 743 mmHg 95%
    23:00 +20°C° 1,1 mm 2 m/S 743 mmHg 96%

    27 Juli, Freitag

    Zeit Temperatur Niederschläge Wind Luftdruck Luftfeuchtigkeit
    00:00 +20°C° 0,1 mm 2 m/S 743 mmHg 97%
    01:00 +20°C° 0,1 mm 2 m/S 743 mmHg 97%
    02:00 +20°C° 0,1 mm 2 m/S 743 mmHg 97%
    03:00 +20°C° 0 mm 2 m/S 744 mmHg 98%
    04:00 +20°C° 0 mm 2 m/S 744 mmHg 98%
    05:00 +20°C° 0 mm 2 m/S 744 mmHg 98%
    06:00 +21°C° 0 mm 2 m/S 744 mmHg 95%
    07:00 +23°C° 0 mm 2 m/S 744 mmHg 93%
    08:00 +24°C° 0 mm 3 m/S 744 mmHg 91%
    09:00 +25°C° 0,1 mm 3 m/S 745 mmHg 82%
    10:00 +27°C° 0,1 mm 3 m/S 745 mmHg 73%
    11:00 +29°C° 0,1 mm 3 m/S 745 mmHg 64%
    12:00 +30°C° 0 mm 4 m/S 745 mmHg 59%
    13:00 +32°C° 0 mm 4 m/S 745 mmHg 54%
    14:00 +33°C° 0 mm 4 m/S 745 mmHg 49%
    15:00 +32°C° 0,1 mm 4 m/S 745 mmHg 53%
    16:00 +30°C° 0,1 mm 4 m/S 745 mmHg 57%
    17:00 +29°C° 0,1 mm 3 m/S 745 mmHg 61%
    18:00 +27°C° 1 mm 3 m/S 745 mmHg 71%
    19:00 +25°C° 1 mm 3 m/S 745 mmHg 80%
    20:00 +23°C° 1 mm 2 m/S 745 mmHg 90%
    21:00 +23°C° 0,2 mm 2 m/S 745 mmHg 91%
    22:00 +23°C° 0,2 mm 2 m/S 745 mmHg 91%
    23:00 +21°C° 0,2 mm 2 m/S 746 mmHg 92%

    28 Juli, Samstag

    Zeit Temperatur Niederschläge Wind Luftdruck Luftfeuchtigkeit
    00:00 +21°C° 0,5 mm 2 m/S 746 mmHg 93%
    01:00 +21°C° 0,5 mm 2 m/S 746 mmHg 94%
    02:00 +20°C° 0,5 mm 2 m/S 746 mmHg 95%
    03:00 +20°C° 0,7 mm 2 m/S 746 mmHg 95%
    04:00 +20°C° 0,7 mm 2 m/S 746 mmHg 96%
    05:00 +20°C° 0,7 mm 2 m/S 747 mmHg 96%
    06:00 +21°C° 0 mm 2 m/S 747 mmHg 90%
    07:00 +24°C° 0 mm 2 m/S 747 mmHg 85%
    08:00 +25°C° 0 mm 3 m/S 747 mmHg 79%
    09:00 +27°C° 0 mm 3 m/S 747 mmHg 69%
    10:00 +28°C° 0 mm 3 m/S 747 mmHg 59%
    11:00 +30°C° 0 mm 4 m/S 747 mmHg 49%
    12:00 +30°C° 0 mm 4 m/S 747 mmHg 47%
    13:00 +30°C° 0 mm 4 m/S 747 mmHg 46%
    14:00 +32°C° 0 mm 4 m/S 747 mmHg 44%
    15:00 +30°C° 0 mm 3 m/S 747 mmHg 48%
    16:00 +30°C° 0 mm 3 m/S 747 mmHg 52%
    17:00 +29°C° 0 mm 2 m/S 747 mmHg 56%
    18:00 +28°C° 0 mm 2 m/S 747 mmHg 64%
    19:00 +26°C° 0 mm 2 m/S 747 mmHg 71%
    20:00 +24°C° 0 mm 2 m/S 747 mmHg 78%
    21:00 +23°C° 0 mm 2 m/S 747 mmHg 80%
    22:00 +21°C° 0 mm 2 m/S 748 mmHg 83%
    23:00 +20°C° 0 mm 2 m/S 748 mmHg 85%
    Mehr zeigen